EW3811 Weather Reports


Display with metric or nautical units.
time (UTC)temp
F
wind
direction
speed
MPH
gust
MPH
rain 1hr
in
rain 24hr
in
rain mn
in
humidity
%
barometer
mb
20181023161649 40 226 1.0 2.0 0.00 0.00 0.00 72 1022.6
20181023160148 39 75 0.0 2.0 0.00 0.00 0.00 72 1022.8
20181023154633 39 233 1.0 2.0 0.00 0.00 0.00 73 1022.9
20181023153134 39 119 1.0 3.0 0.00 0.00 0.00 73 1023.0
20181023151635 40 258 2.0 4.0 0.00 0.00 0.00 70 1023.0
20181023150156 40 132 0.0 2.0 0.00 0.00 0.00 72 1022.8
20181023144700 40 139 0.0 1.0 0.00 0.00 0.00 71 1022.9
20181023143148 40 63 0.0 3.0 0.00 0.00 0.00 71 1023.0
20181023141746 40 233 0.0 4.0 0.00 0.00 0.00 70 1023.2
20181023140147 40 116 0.0 3.0 0.00 0.00 0.00 70 1023.2
20181023134616 41 322 0.0 3.0 0.00 0.00 0.00 68 1023.2
20181023133145 40 84 0.0 5.0 0.00 0.00 0.00 70 1023.3
20181023131637 40 128 0.0 1.0 0.00 0.00 0.00 71 1023.3
20181023130046 39 115 0.0 2.0 0.00 0.00 0.00 73 1023.5
20181023124557 38 215 0.0 1.0 0.00 0.00 0.00 77 1023.7
20181023123103 36 147 0.0 0.0 0.00 0.00 0.00 81 1023.6
20181023121601 34 341 0.0 0.0 0.00 0.00 0.00 84 1023.6
20181023120110 33 293 0.0 0.0 0.00 0.00 0.00 84 1023.6
20181023114605 33 293 0.0 0.0 0.00 0.00 0.00 84 1023.7
20181023113040 33 315 0.0 0.0 0.00 0.00 0.00 83 1023.5
20181023111631 33 316 0.0 0.0 0.00 0.00 0.00 83 1023.4
20181023110035 33 316 0.0 0.0 0.00 0.00 0.00 82 1023.4
20181023104543 33 316 0.0 0.0 0.00 0.00 0.00 82 1023.3
20181023103047 34 316 0.0 0.0 0.00 0.00 0.00 81 1023.4
20181023101542 34 316 0.0 0.0 0.00 0.00 0.00 82 1023.4
20181023100134 34 316 0.0 0.0 0.00 0.00 0.00 81 1023.5
20181023094600 34 316 0.0 0.0 0.00 0.00 0.00 82 1023.5
20181023093029 34 316 0.0 0.0 0.00 0.00 0.00 82 1023.4
20181023091610 34 315 0.0 0.0 0.00 0.00 0.00 81 1023.5
20181023090041 34 315 0.0 0.0 0.00 0.00 0.00 81 1023.4
20181023084527 33 315 0.0 0.0 0.00 0.00 0.00 81 1023.2
20181023083025 34 315 0.0 0.0 0.00 0.00 0.00 81 1023.2
20181023081538 34 315 0.0 0.0 0.00 0.00 0.00 81 1023.2
20181023080034 34 316 0.0 0.0 0.00 0.00 0.00 80 1023.1
20181023074602 33 315 0.0 0.0 0.00 0.00 0.00 80 1023.0
20181023073022 33 285 0.0 0.0 0.00 0.00 0.00 80 1023.1
20181023071519 34 285 0.0 1.0 0.00 0.00 0.00 79 1023.1
20181023070024 34 285 0.0 1.0 0.00 0.00 0.00 77 1023.3
20181023064516 34 279 0.0 2.0 0.00 0.00 0.00 78 1023.5
20181023063007 34 304 0.0 0.0 0.00 0.00 0.00 78 1023.7
20181023061508 34 304 0.0 0.0 0.00 0.00 0.00 76 1023.8
20181023060010 34 304 0.0 1.0 0.00 0.00 0.00 75 1023.9
20181023054501 34 302 0.0 1.0 0.00 0.00 0.00 78 1024.0
20181023053222 35 303 0.0 1.0 0.00 0.00 0.00 73 1024.1
20181023051650 35 302 0.0 1.0 0.00 0.00 0.00 72 1024.1
20181023050050 34 297 0.0 0.0 0.00 0.00 0.00 72 1024.0
20181023044638 34 297 0.0 0.0 0.00 0.00 0.00 73 1023.9
20181023043108 35 297 0.0 1.0 0.00 0.00 0.00 70 1023.9
20181023041624 34 297 0.0 0.0 0.00 0.00 0.00 72 1024.1
20181023040147 34 297 0.0 0.0 0.00 0.00 0.00 73 1024.2
20181023034600 34 297 0.0 1.0 0.00 0.00 0.00 75 1024.2
20181023033148 34 297 0.0 1.0 0.00 0.00 0.00 68 1024.2
20181023031618 34 297 0.0 0.0 0.00 0.00 0.00 68 1024.3
20181023030115 34 297 0.0 1.0 0.00 0.00 0.00 67 1024.3
20181023024607 34 297 0.0 1.0 0.00 0.00 0.00 68 1024.2
20181023023112 34 279 0.0 1.0 0.00 0.00 0.00 66 1024.3
20181023021646 34 278 0.0 1.0 0.00 0.00 0.00 70 1024.2
20181023020051 33 277 0.0 0.0 0.00 0.00 0.00 70 1024.1
20181023014558 34 277 0.0 1.0 0.00 0.00 0.00 68 1024.1
20181023013100 34 277 0.0 1.0 0.00 0.00 0.00 69 1024.1
20181023011705 34 277 0.0 1.0 0.00 0.00 0.00 67 1024.0
20181023010041 34 297 0.0 1.0 0.00 0.00 0.00 67 1023.9
20181023004558 33 276 0.0 1.0 0.00 0.00 0.00 67 1023.9
20181023003214 32 287 0.0 1.0 0.00 0.00 0.00 70 1023.7
20181023001552 32 262 0.0 1.0 0.00 0.00 0.00 70 1023.6
20181023000044 33 262 0.0 1.0 0.00 0.00 0.00 68 1023.6
20181022234530 34 221 0.0 1.0 0.00 0.00 0.00 66 1023.5
20181022233057 34 149 0.0 0.0 0.00 0.00 0.00 66 1023.4
20181022231545 35 149 0.0 0.0 0.00 0.00 0.00 66 1023.3
20181022230026 35 149 0.0 0.0 0.00 0.00 0.00 63 1023.3
20181022224600 36 263 0.0 3.0 0.00 0.00 0.00 62 1023.3
20181022223028 36 160 0.0 1.0 0.00 0.00 0.00 61 1023.0
20181022221548 36 212 0.0 5.0 0.00 0.00 0.00 61 1022.9
20181022220022 36 167 1.0 5.0 0.00 0.00 0.00 61 1022.7
20181022214532 37 236 1.0 6.0 0.00 0.00 0.00 59 1022.5
20181022213034 37 222 0.0 6.0 0.00 0.00 0.00 58 1022.2
20181022211516 38 70 0.0 4.0 0.00 0.00 0.00 57 1022.1
20181022210021 38 249 0.0 2.0 0.00 0.00 0.00 56 1022.0
20181022204516 38 235 1.0 6.0 0.00 0.00 0.00 55 1021.9
20181022203014 39 319 0.0 5.0 0.00 0.00 0.00 51 1021.8
20181022201519 40 220 2.0 10.0 0.00 0.00 0.00 51 1021.7
20181022200012 40 199 4.0 12.0 0.00 0.00 0.00 49 1021.7
20181022194512 41 255 2.0 8.0 0.00 0.00 0.00 49 1021.8
20181022193009 39 132 1.0 5.0 0.00 0.00 0.00 47 1021.8
20181022191502 39 124 0.0 9.0 0.00 0.00 0.00 48 1022.0
20181022190205 38 87 0.0 5.0 0.00 0.00 0.00 49 1022.0
20181022184658 38 304 2.0 10.0 0.00 0.00 0.00 48 1022.3
20181022183140 37 300 0.0 5.0 0.00 0.00 0.00 50 1022.4
20181022181639 38 229 2.0 7.0 0.00 0.00 0.00 47 1022.5
20181022180211 37 210 2.0 7.0 0.00 0.00 0.00 47 1022.4
20181022174648 37 285 1.0 4.0 0.00 0.00 0.00 47 1022.5
20181022173118 35 77 1.0 6.0 0.00 0.00 0.00 51 1022.6
20181022171617 35 262 3.0 8.0 0.00 0.00 0.00 51 1022.7
20181022170120 34 228 2.0 9.0 0.00 0.00 0.00 52 1022.7
20181022164714 35 113 2.0 12.0 0.00 0.00 0.00 49 1022.8
20181022163118 36 187 2.0 13.0 0.00 0.00 0.00 52 1022.5